Location: *
(55.5817°S, 142.4781°W)
Time: 06:40:36
(UTC+00:00)

Cosmos 407 Rocket - Pass Details

Date: 29 April 2025
Orbit: 740 x 781 km, 74.0° (Epoch: 23 May)

Event Time Altitude Azimuth Distance (km) Brightness Sun altitude
Exits shadow 15:16:45 - 213° (SSW) 2,729 6.0 -13.5°
Reaches altitude 10° 15:17:46 10° 216° (SW) 2,349 5.6 -13.4°
Maximum altitude 15:22:51 46° 288° (WNW) 1,051 3.8 -12.7°
Drops below altitude 10° 15:27:56 10° 359° (N) 2,345 6.1 -12.0°
Sets 15:30:23 0° 5° (N) 3,269 6.9 -11.6°
